Location: Vanderbilt Beach
(26.2700°N, 81.7900°W)
Time: 15:53:48
(UTC-04:00)

JY1SAT - Visible Passes

Search period start: 22 April 2024 00:00
Search period end: 02 May 2024 00:00
Orbit: 540 x 556 km, 97.5° (Epoch: 21 April)

Date Brightness Start Highest point End Pass type
(mag) Time Alt. Az. Time Alt. Az. Time Alt. Az.
24 Apr ? 22:45:47 11° NNW 22:45:47 11° NNW 22:45:55 10° NNW visible
25 Apr ? 22:40:42 12° N 22:40:42 12° N 22:40:58 10° N visible
26 Apr ? 22:35:36 12° N 22:35:36 12° N 22:35:57 10° N visible
27 Apr ? 22:30:27 13° N 22:30:27 13° N 22:30:54 10° N visible
28 Apr ? 22:25:16 13° N 22:25:16 13° N 22:25:46 10° N visible
29 Apr ? 22:20:02 13° N 22:20:02 13° N 22:20:36 10° N visible
30 Apr ? 22:14:46 13° NNE 22:14:46 13° NNE 22:15:21 10° N visible
01 May ? 22:09:28 13° NNE 22:09:28 13° NNE 22:10:02 10° NNE visible
